{"data":{"norad_id":55156,"intl_designator":"2023-004S","name":"ONEWEB-0614","alt_names":[],"object_type":"PAYLOAD","status":"ACTIVE","operator":null,"country":"UK","launch_date":"2023-01-10","launch_site_code":"AFETR","launch_vehicle":null,"mission":null,"orbit_class":"UNKNOWN","rcs_meters":null,"size_class":null,"mass_kg":null,"dimensions":null,"purposes":["comms"],"wikipedia_slug":null,"has_3d_model":false,"image_url":null,"decayed_at":null,"tle_current":{"epoch":"2026-05-25T02:43:31.050048Z","epoch_age_seconds":75756,"freshness":"FRESH","line1":"1 55156U 23004S   26145.11355382  .00000508  00000+0  13961-2 0  9991","line2":"2 55156  87.8907  25.6686 0001997  85.4181 274.7175 13.11417114162814","mean_motion":13.11417114,"eccentricity":0.0001997,"inclination_deg":87.8907,"raan_deg":25.6686,"arg_perigee_deg":85.4181,"mean_anomaly_deg":274.7175,"bstar":0.0013961,"rev_number":16281,"period_min":109.80488089009,"perigee_km":1216.1651607371,"apogee_km":1219.1989308639,"semimajor_km":7595.8190458005,"source":"CELESTRAK","updated_at":"2026-05-25T13:38:22.642737Z"}}}